#timestamp,LO_Frequency,Hit,StdDev 
1582056015.4,286047002.8,N
1582056035.2,286047002.2,N
1582056055.0,286047000.5,N
1582056055.9,286047000.5,N
1582056075.8,286046998.5,N
1582056095.6,286047001.0,N
1582056115.4,286047000.5,N
1582056135.3,286046999.4,N
1582056155.1,286046998.1,N
1582056175.9,286046998.5,N
1582056195.7,286047000.5,N
1582056215.5,286046998.6,N
1582056235.4,286047000.6,N
1582056255.2,286046998.8,N
1582056275.1,286046998.1,N
1582056276.0,286046998.1,N
1582056295.8,286046999.9,N
1582056315.6,286047001.1,N
1582056335.5,286047001.1,N
1582056355.3,286047000.6,N
1582056375.1,286047000.7,N
1582056395.9,286047000.5,N
1582056415.7,286047000.4,N
1582056435.6,286047000.4,N
1582056455.4,286047000.6,N
1582056475.2,286047001.1,N
1582056495.1,286047002.4,N
1582056496.0,286047002.4,N
1582056515.8,286047002.5,N
1582056535.7,286047002.3,N
1582056555.5,286047000.2,N
1582056575.3,286047000.4,N
1582056595.2,286047000.3,N
1582056615.0,286047002.3,N
1582056615.9,286047002.3,N
1582056635.8,286047002.1,N
1582056655.6,286047005.9,Y
1582056675.4,286047007.1,P
1582056695.3,286047004.6,N
1582056715.1,286047003.4,N
1582056735.9,286047004.3,N
1582056755.7,286046999.7,N
1582056775.5,286047000.1,N
1582056795.4,286047002.8,N
1582056815.2,286047002.1,N
1582056835.0,286047002.1,N
1582056836.0,286047002.1,N
1582056855.8,286047002.0,N
1582056875.6,286047003.2,N
1582056895.5,286047002.9,N
1582056915.3,286047004.8,N
1582056935.2,286047007.0,Y
1582056955.9,286047001.9,P
1582056975.7,286047002.7,P
1582056995.6,286046999.9,N
1582057015.4,286047004.0,Y
1582057035.3,286047002.6,P
1582057055.1,286047002.0,P
1582057056.0,286047002.0,P
1582057075.8,286047002.5,Y
1582057095.7,286046996.5,P
1582057115.5,286046995.3,N
1582057135.4,286046997.0,N
1582057155.2,286046998.9,N
1582057175.0,286047000.8,N
1582057175.9,286047000.8,N
1582057195.8,286047001.0,N
1582057215.6,286046999.9,N
1582057235.4,286047000.8,N
1582057255.3,286047000.8,N
1582057275.1,286047000.3,N
1582057295.9,286047000.4,N
1582057315.7,286047002.8,N
1582057335.5,286047002.7,N
1582057355.4,286046998.2,N
1582057375.2,286046999.7,N
1582057395.0,286047002.4,N
1582057395.9,286047002.4,N
1582057415.8,286047000.4,N
1582057435.6,286047000.3,N
1582057455.5,286047001.8,N
1582057475.3,286047000.7,N
1582057495.1,286046998.7,N
1582057515.9,286046999.3,N
1582057535.7,286047001.0,N
1582057555.5,286046998.3,N
1582057575.4,286046998.9,N
1582057595.2,286046997.6,N
1582057615.1,286046999.4,N
1582057616.0,286046999.4,N
1582057635.8,286046998.8,N
1582057655.6,286047000.3,N
1582057675.5,286046998.5,N
1582057695.3,286047000.7,N
1582057715.2,286047002.4,N
1582057735.9,286047000.9,N
1582057755.7,286046997.2,N
1582057775.6,286046996.8,N
1582057795.4,286046995.0,Y
1582057815.2,286046998.5,P
1582057835.1,286046999.3,N
1582057836.0,286046999.3,N
1582057855.8,286046998.2,Y
1582057875.7,286047001.3,P
1582057895.5,286047002.1,N
1582057915.3,286047002.3,N
1582057935.2,286047003.0,N
1582057955.0,286047003.8,N
1582057955.9,286047003.8,N
1582057975.8,286046999.8,N
1582057995.6,286047002.8,N
1582058015.4,286046999.8,N
1582058035.3,286046999.9,N
1582058055.1,286047000.6,N
1582058075.8,286047000.6,N
1582058095.7,286047002.6,N
1582058115.5,286047004.1,N
1582058135.4,286047003.2,N
1582058155.2,286047003.8,N
1582058175.0,286047001.3,N
1582058175.9,286047001.3,N
1582058195.8,286047000.3,N
1582058215.6,286047001.8,N
1582058235.5,286047003.1,N
1582058255.3,286047004.4,N
1582058275.1,286047001.9,N
1582058295.9,286047002.3,N
1582058315.7,286047002.5,N
1582058335.5,286047001.3,N
1582058355.4,286047001.8,N
1582058375.2,286047003.2,N
1582058395.1,286047002.0,N
1582058396.0,286047002.0,N
1582058415.8,286047002.7,N
1582058435.6,286047002.1,N
1582058455.5,286046999.7,N
1582058475.3,286047000.0,N
1582058495.2,286047004.3,Y
1582058515.9,286046998.9,P
1582058535.7,286046998.3,N
1582058555.6,286046999.7,N
1582058575.4,286046998.1,N
1582058595.2,286046998.3,N
1582058615.1,286046999.5,N
1582058616.0,286046999.5,N
1582058665.8,286046998.6,E
1582058675.7,286047000.4,N
1582058695.6,286047004.0,P
1582058715.4,286047006.0,P
1582058735.3,286047005.7,N
1582058755.1,286047007.5,Y
1582058775.8,286047002.0,P
1582058795.7,286047001.7,N
1582058815.5,286047001.3,N
1582058835.4,286047002.1,N
1582058855.2,286047002.8,N
1582058875.0,286047000.3,N
1582058875.9,286047000.3,N
1582058895.8,286047000.4,N
1582058915.6,286046999.9,N
1582058935.4,286047001.2,N
1582058955.3,286046996.8,N
1582058975.1,286046998.0,N
1582058995.9,286046998.9,N
1582059015.7,286047000.8,N
1582059035.5,286047000.2,N
1582059055.4,286047004.0,N
1582059075.2,286047003.8,N
1582059095.1,286047003.4,N
1582059096.0,286047003.4,N
1582059115.8,286047002.6,N
1582059135.6,286047000.7,N
1582059155.5,286047001.5,N
1582059175.3,286047001.3,N
1582059195.2,286047002.0,N
1582059215.9,286047004.2,N
1582059235.7,286047004.0,N
1582059255.6,286047002.0,N
1582059275.4,286046999.8,N
1582059295.2,286047001.6,N
1582059315.1,286047000.4,N
1582059316.0,286047000.4,N
1582059335.8,286047000.7,N
1582059355.7,286047000.7,N
1582059375.5,286047000.7,N
1582059395.3,286046999.1,N
1582059415.2,286046998.6,N
1582059435.0,286046998.9,N
1582059435.9,286046998.9,N
1582059455.8,286046998.1,N
1582059475.6,286047000.2,N
1582059495.4,286046998.6,N
1582059515.3,286046998.6,N
1582059535.1,286046998.5,N
1582059555.8,286046998.3,N
1582059575.7,286047000.9,N
1582059595.5,286047000.2,N
